Location: Colossi of Memnon
(25.7167°N, 32.6167°E)
Time: 03:39:52
(UTC+00:00)

Lacrosse 4 Rocket - Pass Details

Date: 05 March 2021
Orbit: 537 x 620 km, 68.0° (Epoch: 21 April)

Event Time Altitude Azimuth Distance (km) Brightness Sun altitude
Rises 03:43:31 0° 329° (NNW) 2,874 4.6 -6.5°
Reaches altitude 10° 03:45:53 10° 322° (NW) 1,957 3.7 -6.0°
Maximum altitude 03:50:02 41° 252° (WSW) 867 1.9 -5.1°
Drops below altitude 10° 03:54:04 10° 181° (S) 1,906 4.1 -4.2°
Sets 03:56:21 0° 174° (S) 2,788 5.1 -3.6°
